Location: Zagreb
(45.8000°N, 16.0000°E)
Time: 09:07:25
(UTC+02:00)

Courier 1B Rocket - Pass Details

Date: 13 August 2022
Orbit: 920 x 1202 km, 28.2° (Epoch: 25 September)

Event Time Altitude Azimuth Distance (km) Brightness Sun altitude
Rises 20:08:09 0° 244° (WSW) 3,589 8.7 -0.9°
Reaches altitude 10° 20:12:31 10° 216° (SW) 2,688 7.5 -1.6°
Maximum altitude 20:15:02 12° 193° (SSW) 2,544 7.1 -2.0°
Drops below altitude 10° 20:17:35 10° 170° (S) 2,753 7.1 -2.4°
Sets 20:22:13 0° 143° (SE) 3,774 7.5 -3.2°
